Home   Weather   Darlinghurst   Past weeks
Flag for Australia

Past Weather in Darlinghurst, New South Wales, Australia — Yesterday and Last 2 Weeks

Now
67 °F

Mild.


Feels Like: 67 °F
Forecast: 72 / 56 °F
Wind: N/A

Location: Sydney Regional Office

Current Time: Oct 21, 2019 at 11:22:54 am

Latest Report: Oct 21, 2019 at 10:00 am


Visibility: N/A

Pressure: 30.34 "Hg

Humidity: 47%

Dew Point: 46 °F

Location of DarlinghurstLocation

Past Weather in Darlinghurst — Graph

°F

Darlinghurst Temperature Yesterday

Maximum temperature yesterday: 69 °F (at 3:00 pm)
Minimum temperature yesterday: 56 °F (at 7:00 am)
Average temperature yesterday: 63 °F

High & Low Weather Summary for the Past Weeks

 TemperatureHumidityPressure
High83 °F (Oct 17, 1:00 pm)88% (Oct 12, 4:00 am)30.34 "Hg (Oct 12, 4:00 am)
Low51 °F (Oct 9, 6:00 am)13% (Oct 17, 6:00 pm)29.67 "Hg (Oct 17, 1:00 pm)
Average63 °F60%30.00 "Hg
* Reported Oct 6 10:00 am — Oct 21 10:00 am, Darlinghurst. Weather by CustomWeather, © 2019

Note: Actual official high and low records may vary slightly from our data, if they occured in-between our weather recording intervals... More about our weather records

Advertising

Darlinghurst Weather History for the Previous 24 Hours

Scroll right to see more
 ConditionsComfort  
Time TempWeatherWind HumidityBarometerVisibility
10:00 am
Mon, Oct 21
67 °FMild.N/A47%30.34 "HgN/A
9:00 am61 °FRefreshingly cool.N/A58%30.34 "HgN/A
7:00 am55 °FCool.N/A74%30.31 "HgN/A
6:00 am54 °FCool.N/A75%30.29 "HgN/A
4:00 am55 °FCool.N/A74%30.27 "HgN/A
3:00 am56 °FCool.N/A73%30.28 "HgN/A
1:00 am58 °FCool.N/A69%30.30 "HgN/A
12:00 am60 °FCool.N/A63%30.30 "HgN/A
10:00 pm
Sun, Oct 20
63 °FMild.N/A50%30.29 "HgN/A
9:00 pm63 °FMild.N/A50%30.27 "HgN/A
7:00 pm64 °FMild.N/A45%30.21 "HgN/A
6:00 pm65 °FMild.N/A39%30.18 "HgN/A
4:00 pm67 °FMild.N/A33%30.15 "HgN/A
3:00 pm69 °FMild.N/A31%30.15 "HgN/A
1:00 pm69 °FMild.N/A26%30.17 "HgN/A
12:00 pm68 °FMild.N/A27%30.19 "HgN/A
Weather by CustomWeather, © 2019

See weather overview